Location: Elende
(51.4317°N, 10.6316°E)
Time: 07:29:42
(UTC+00:00)

GP-B - Pass Details

Date: 18 September 2020
Orbit: 631 x 635 km, 89.8° (Epoch: 22 October)

Event Time Altitude Azimuth Distance (km) Brightness Sun altitude
Rises 18:16:54 0° 356° (N) 2,946 6.8 -9.0°
Reaches altitude 10° 18:19:13 10° 350° (N) 2,032 6.0 -9.3°
Maximum altitude 18:23:26 44° 279° (W) 883 4.5 -9.9°
Drops below altitude 10° 18:27:39 10° 207° (SSW) 2,014 5.8 -10.6°
Sets 18:29:55 0° 201° (SSW) 2,916 6.6 -10.9°
